Overview Statistics Trail Chart Weather Telemetry Raw packets
 

This is the latest recevied weather packets stored in our database for station/object HB9KBJ-4. If no packets are shown the sender has not sent any weather packets the latest 10 day(s).

<< 67 68 69 70 71 72 73 >>
Time Temp. Humidity Pressure Rain* Wind** Luminosity Snow
1787826352 23.33° C 51% - 0 mm - - -
1787826052 22.78° C 52% - 0 mm - - -
1787825451 22.22° C 53% - 0 mm - - -
1787825151 21.67° C 55% - 0 mm - - -
1787824851 21.67° C 57% - 0 mm - - -
1787824550 22.22° C 57% - 0 mm - - -
1787823950 21.11° C 56% - 0 mm - - -
1787823349 20.56° C 60% - 0 mm - - -
1787822749 20° C 61% - 0 mm - - -
1787818244 17.78° C 73% - 0 mm - - -
1787816442 16.67° C 74% - 0 mm - - -
1787816142 16.67° C 75% - 0 mm - - -
1787815241 16.67° C 77% - 0 mm - - -
1787814941 16.67° C 77% - 0 mm - - -
1787814640 16.11° C 76% - 0 mm - - -
1787814340 16.11° C 76% - 0 mm - - -
1787813739 16.11° C 76% - 0 mm - - -
1787813139 15.56° C 76% - 0 mm - - -
1787812839 15.56° C 76% - 0 mm - - -
1787812238 15.56° C 76% - 0 mm - - -
1787811638 15.56° C 76% - 0 mm - - -
1787811337 15.56° C 75% - 0 mm - - -
1787811037 15.56° C 75% - 0 mm - - -
1787810737 15.56° C 75% - 0 mm - - -
1787810436 15.56° C 75% - 0 mm - - -

* Rain since midnight (hover to see other rain measurements)
** Current wind speed in m/s (hover to see current wind gust speed)